Tracking 29528 objects as of 12-Sep-2024
HD Live streaming from Space Station
objects crossing your sky now

ONEWEB-0592

Track ONEWEB-0592 now!
10-day predictions
ONEWEB-0592 is classified as:


NORAD ID: 54658
Int'l Code: 2022-166S
Perigee: 1,183.5 km
Apogee: 1,186.2 km
Inclination: 87.9 °
Period: 108.9 minutes
Semi major axis: 7555 km
RCS: Unknown
Launch date: December 8, 2022
Source: United Kingdom (UK)
Launch site: AIR FORCE EASTERN TEST RANGE (AFETR)
Your satellite tracking list
Your tracking list is empty




NASA's NSSDC Master Catalog

Two Line Element Set (TLE):
1 54658U 22166S   24255.89227058  .00000102  00000-0  21438-3 0  9998
2 54658  87.9352  12.0353 0001790  93.5318 266.6020 13.21827272 86454
Source of the keplerian elements: AFSPC